This demonstration page uses our WeatherBlox Daily Observations layout. Learn more.

Left ArrowRight Arrow

Hourly Observations for April 25, 2021

Temp ( °F °C ) Dew Point ( °F °C ) Humidity (%) Winds ( mph kmh ) Pressure ( in mb ) Visibility ( mi km ) Precip ( " mm )
12:15 am 00:15 Clear 47 8.2 39 4 75 75 ESE 9 15 29.93 1014 10 16 0.00 0.00
12:35 am 00:35 Clear 46 7.9 39 3.7 75 75 ESE 10 17 29.92 1013 10 16 0.00 0.00
12:55 am 00:55 Clear 47 8.3 39 3.8 74 74 ESE 10 17 29.92 1013 10 16 0.00 0.00
1:15 am 01:15 Clear 47 8.5 39 3.9 73 73 SE 12 19 29.92 1013 10 16 0.00 0.00
1:35 am 01:35 Clear 47 8.6 39 4 73 73 SE 13 20 29.91 1013 10 16 0.00 0.00
1:55 am 01:55 Clear 49 9.2 40 4.2 71 71 SE 13 20 29.90 1013 10 16 0.00 0.00
2:15 am 02:15 Clear 48 9.1 40 4.2 72 72 SE 13 20 29.90 1013 10 16 0.00 0.00
2:35 am 02:35 Clear 48 9 40 4.3 73 73 SE 13 20 29.89 1012 10 16 0.00 0.00
2:55 am 02:55 Clear 48 8.8 40 4.5 75 75 SE 12 19 29.88 1012 10 16 0.00 0.00
3:15 am 03:15 Clear 47 8.5 40 4.5 76 76 SSE 9 15 29.89 1012 10 16 0.00 0.00
3:35 am 03:35 Clear 47 8.4 40 4.3 76 76 SSE 9 15 29.88 1012 10 16 0.00 0.00
3:55 am 03:55 Clear 47 8.1 39 4.1 76 76 SE 8 13 29.88 1012 10 16 0.00 0.00
4:15 am 04:15 Clear 46 7.7 39 4.1 78 78 SSE 8 13 29.88 1012 10 16 0.00 0.00
4:35 am 04:35 Clear 46 8 39 4.1 77 77 SE 10 17 29.87 1012 10 16 0.00 0.00
4:55 am 04:55 Clear 46 7.8 39 4 77 77 SE 10 17 29.86 1011 10 16 0.00 0.00
5:15 am 05:15 Clear 46 8 39 4 76 76 SE 12 19 29.85 1011 10 16 0.00 0.00
5:35 am 05:35 Clear 46 7.7 39 3.7 76 76 SE 12 19 29.84 1011 10 16 0.00 0.00
5:55 am 05:55 Clear 46 7.5 39 3.7 77 77 SE 13 20 29.84 1010 10 16 0.00 0.00
6:15 am 06:15 Clear 45 7.2 38 3.6 78 78 SE 13 20 29.85 1011 10 16 0.00 0.00
6:35 am 06:35 Clear 44 6.7 38 3.6 81 81 SE 13 20 29.84 1011 10 16 0.00 0.00
6:55 am 06:55 Sunny 44 6.7 39 3.7 81 81 SE 16 26 29.84 1011 10 16 0.00 0.00
7:15 am 07:15 Sunny 45 7 39 3.8 80 80 SSE 12 19 29.83 1010 10 16 0.00 0.00
7:35 am 07:35 Sunny 46 7.7 40 4.3 79 79 SSE 12 19 29.82 1010 10 16 0.00 0.00
7:55 am 07:55 Sunny 49 9.5 41 5.2 75 75 SSE 16 26 29.81 1009 10 16 0.00 0.00
8:15 am 08:15 Sunny 51 10.7 42 5.7 71 71 SSE 17 28 29.80 1009 10 16 0.00 0.00
8:35 am 08:35 Sunny 53 11.8 43 6.1 68 68 S 20 31 29.79 1009 10 16 0.00 0.00
8:55 am 08:55 Sunny 55 12.6 44 6.4 66 66 S 24 39 29.77 1008 10 16 0.00 0.00
9:15 am 09:15 Sunny 56 13.2 44 6.7 65 65 S 25 41 29.74 1007 10 16 0.00 0.00
9:35 am 09:35 Sunny 56 13.6 44 6.8 64 64 S 22 35 29.75 1007 10 16 0.00 0.00
9:55 am 09:55 Sunny 58 14.2 45 7.1 63 63 S 22 35 29.74 1007 10 16 0.00 0.00
10:15 am 10:15 Sunny 58 14.5 45 7.1 61 61 S 22 35 29.72 1007 10 16 0.00 0.00
10:35 am 10:35 Sunny 59 15 45 7.3 60 60 S 23 37 29.72 1006 10 16 0.00 0.00
10:55 am 10:55 Sunny 60 15.8 46 7.5 58 58 S 22 35 29.72 1007 10 16 0.00 0.00
11:15 am 11:15 Partly Cloudy 62 16.5 46 7.6 56 56 SSW 16 26 29.71 1006 10 16 0.00 0.00
11:35 am 11:35 Partly Cloudy 62 16.7 46 7.5 55 55 S 15 24 29.71 1006 10 16 0.00 0.00
11:55 am 11:55 Sunny 64 17.8 46 8 53 53 SSW 15 24 29.70 1006 10 16 0.00 0.00
12:15 pm 12:15 Sunny 65 18.2 46 7.9 51 51 SSW 15 24 29.68 1005 10 16 0.00 0.00
12:35 pm 12:35 Sunny 66 18.7 46 7.8 49 49 SSW 13 20 29.67 1005 10 16 0.00 0.00
12:55 pm 12:55 Sunny 67 19.5 47 8.1 48 48 SSW 13 20 29.65 1004 10 16 0.00 0.00
1:15 pm 13:15 Sunny 68 20.2 46 7.9 45 45 S 13 20 29.64 1004 10 16 0.00 0.00
1:35 pm 13:35 Sunny 69 20.8 47 8.1 44 44 SSW 14 22 29.62 1003 10 16 0.00 0.00
1:55 pm 13:55 Sunny 71 21.7 47 8.2 42 42 SSW 14 22 29.61 1003 10 16 0.00 0.00
2:15 pm 14:15 Sunny 72 22.1 45 7.4 39 39 S 13 20 29.60 1002 10 16 0.00 0.00
2:35 pm 14:35 Sunny 73 23 45 7.3 37 37 SSW 12 19 29.58 1002 10 16 0.00 0.00
2:55 pm 14:55 Sunny 74 23.6 46 7.5 36 36 S 10 17 29.58 1002 10 16 0.00 0.00
3:15 pm 15:15 Sunny 75 23.7 45 7.4 35 35 S 12 19 29.58 1002 10 16 0.00 0.00
3:35 pm 15:35 Sunny 76 24.4 45 7 33 33 S 12 19 29.56 1001 10 16 0.00 0.00
3:55 pm 15:55 Sunny 76 24.4 45 7.1 33 33 S 9 15 29.55 1001 10 16 0.00 0.00
4:15 pm 16:15 Sunny 77 25 45 7.1 32 32 S 7 11 29.54 1000 10 16 0.00 0.00
4:35 pm 16:35 Sunny 77 25.1 45 7 31 31 S 10 17 29.53 1000 10 16 0.00 0.00
4:55 pm 16:55 Sunny 78 25.4 44 6.5 30 30 S 12 19 29.52 1000 10 16 0.00 0.00
5:15 pm 17:15 Sunny 78 25.5 43 6.3 29 29 SSE 8 13 29.51 999 10 16 0.00 0.00
5:35 pm 17:35 Sunny 78 25.7 42 5.8 28 28 S 10 17 29.51 999 10 16 0.00 0.00
5:55 pm 17:55 Sunny 78 25.7 42 5.3 27 27 S 10 17 29.51 999 10 16 0.00 0.00
6:15 pm 18:15 Sunny 78 25.7 42 5.6 28 28 S 12 19 29.51 999 10 16 0.00 0.00
6:35 pm 18:35 Sunny 78 25.7 42 5.3 27 27 S 12 19 29.50 999 10 16 0.00 0.00
6:55 pm 18:55 Sunny 78 25.3 43 5.9 29 29 S 13 20 29.51 999 10 16 0.00 0.00
7:15 pm 19:15 Sunny 77 25 42 5.4 28 28 SSE 14 22 29.51 999 10 16 0.00 0.00
7:35 pm 19:35 Sunny 76 24.4 42 5.3 29 29 SSE 9 15 29.50 999 10 16 0.00 0.00
7:55 pm 19:55 Sunny 73 23 42 5.5 32 32 SSE 8 13 29.51 999 10 16 0.00 0.00
8:15 pm 20:15 Sunny 70 21.3 42 5.3 35 35 SSE 7 11 29.52 1000 10 16 0.00 0.00
8:35 pm 20:35 Clear 66 19.1 43 6 43 43 SSE 7 11 29.54 1000 10 16 0.00 0.00
8:55 pm 20:55 Clear 65 18.5 42 5.8 44 44 SE 12 19 29.54 1000 10 16 0.00 0.00
9:15 pm 21:15 Clear 66 19 44 6.8 45 45 SE 14 22 29.54 1000 10 16 0.00 0.00
9:35 pm 21:35 Clear 66 19.1 49 9.2 53 53 SE 16 26 29.54 1000 10 16 0.00 0.00
9:55 pm 21:55 Clear 67 19.3 50 10.1 55 55 SE 16 26 29.53 1000 10 16 0.00 0.00
10:15 pm 22:15 Clear 67 19.2 51 10.5 57 57 SSE 17 28 29.53 1000 10 16 0.00 0.00
10:35 pm 22:35 Clear 67 19.2 51 10.7 58 58 SSE 18 30 29.52 1000 10 16 0.00 0.00
10:55 pm 22:55 Clear 66 19.1 51 10.8 59 59 SSE 20 31 29.53 1000 10 16 0.00 0.00
11:15 pm 23:15 Clear 66 18.9 52 11 60 60 SSE 18 30 29.52 1000 10 16 0.00 0.00
11:35 pm 23:35 Clear 65 18.5 52 11 62 62 SSE 18 30 29.51 999 10 16 0.00 0.00
11:55 pm 23:55 Clear 64 17.8 52 11.1 65 65 SSE 18 30 29.51 999 10 16 0.00 0.00

Powered by AerisWeather